Regional Weather Roundup
Issued by NWS

Home | Current Version | Previous Version | Text Only | Print | Product List | Glossary On
Versions: 1 2 3 4 5 6 7 8 9 10 11 12 13 14 15 16 17 18 19 20 21 22 23 24 25 26 27 28 29 30 31 32 33 34 35 36 37 38 39 40 41 42 43 44 45 46 47 48 49 50
000
ASUS43 KOAX 040610
RWRNE

WEATHER ROUNDUP FOR NEBRASKA
NATIONAL WEATHER SERVICE OMAHA NE
100 AM CDT SAT JUL 04 2015

NOTES: SATELLITE DATA IS BEING USED TO AUGMENT CLOUD COVER ABOVE
       12000 FEET.
       "FAIR" INDICATES FEW OR NO CLOUDS BELOW 12,000 FEET WITH NO
       SIGNIFICANT WEATHER AND/OR OBSTRUCTIONS TO VISIBILITY.

  * THESE STATIONS DO NOT REPORT WEATHER SUCH AS RAIN...SNOW OR FOG.

NEZ001>004-019>022-054>056-040700-
NEBRASKA PANHANDLE

CITY           SKY/WX    TMP DP  RH WIND       PRES   REMARKS
SCOTTSBLUFF    CLOUDY    71  57  61 SE9       30.01F
6HR MIN TEMP:  71; 6HR MAX TEMP:  85;

ALLIANCE       MOCLDY    66  60  81 SE9       30.01F
6HR MIN TEMP:  63; 6HR MAX TEMP:  80;

CHADRON        PTCLDY    70  57  63 S5        29.95F
6HR MIN TEMP:  67; 6HR MAX TEMP:  83;

KIMBALL          N/A    N/A N/A N/A MISG        N/A
SIDNEY         CLOUDY    68  59  73 S15       30.06F
6HR MIN TEMP:  67; 6HR MAX TEMP:  81;

$$

NEZ057>060-069>072-079>082-040700-
SOUTHWEST NEBRASKA

CITY           SKY/WX    TMP DP  RH WIND       PRES   REMARKS
NORTH PLATTE   CLEAR     67  60  78 SE6       30.03S
6HR MIN TEMP:  66; 6HR MAX TEMP:  82;

IMPERIAL       MOCLDY    68  60  75 S8        30.04F
6HR MIN TEMP:  68; 6HR MAX TEMP:  85;

LEXINGTON      CLEAR     66  62  88 SE6       30.03S
MCCOOK         CLEAR     67  59  75 SE8       30.03F
6HR MIN TEMP:  67; 6HR MAX TEMP:  83;

OGALLALA       MOCLDY    68  62  81 SE9       30.04S
$$

NEZ005>010-023>029-035>040-094-040700-
NORTH CENTRAL NEBRASKA

CITY           SKY/WX    TMP DP  RH WIND       PRES   REMARKS
VALENTINE      CLEAR     67  60  78 SE9       29.98F
6HR MIN TEMP:  66; 6HR MAX TEMP:  81;

AINSWORTH      CLEAR     65  61  87 S7        30.00F
BROKEN BOW     CLEAR     64  60  87 SE7       30.02F
6HR MIN TEMP:  64; 6HR MAX TEMP:  81;

O`NEILL        CLEAR     65  64  96 S5        30.01S FOG
ORD            CLEAR     64  60  87 S3        30.01R
6HR MIN TEMP:  64; 6HR MAX TEMP:  81;

THEDFORD       CLEAR     68  63  83 S13       30.02F
$$

NEZ041-046>049-061>064-073>077-083>087-040700-
SOUTH CENTRAL NEBRASKA

CITY           SKY/WX    TMP DP  RH WIND       PRES   REMARKS
GRAND ISLAND   CLEAR     65  61  87 S6        30.02F
6HR MIN TEMP:  64; 6HR MAX TEMP:  76;

AURORA         CLEAR     64  62  93 S5        30.01F
HASTINGS       CLEAR     66  61  84 SE7       30.02F
6HR MIN TEMP:  66; 6HR MAX TEMP:  77;

HEBRON         CLEAR     64  62  92 CALM      30.02S FOG
HOLDREGE       CLEAR     62  59  90 SE7       30.03F
KEARNEY *      CLEAR     63  59  88 S6        30.03S
YORK           CLOUDY    64  63  94 S5        30.01F
$$

NEZ011>018-030>034-042>045-040700-
NORTHEAST NEBRASKA

CITY           SKY/WX    TMP DP  RH WIND       PRES   REMARKS
NORFOLK        CLEAR     63  61  93 S7        29.99R FOG
6HR MIN TEMP:  63; 6HR MAX TEMP:  76;

ALBION         CLEAR     63  59  87 CALM      30.01S
BLAIR          CLEAR     63  56  77 CALM      29.99S
COLUMBUS *     CLEAR     59  54  82 CALM      29.98S
FREMONT        CLEAR     67  60  79 CALM      30.00R HAZE
TEKAMAH        CLEAR     59  56  89 S3        29.98S
6HR MIN TEMP:  59; 6HR MAX TEMP:  79;

WAYNE          CLEAR     61  60  97 S3        29.99S FOG
$$

NEZ050>053-065>068-078-088>093-040700-
SOUTHEAST NEBRASKA

CITY           SKY/WX    TMP DP  RH WIND       PRES   REMARKS
LINCOLN        CLEAR     67  59  75 CALM      30.00F HAZE
6HR MIN TEMP:  66; 6HR MAX TEMP:  78;

OMAHA EPPLEY   PTCLDY    63  56  78 E5        29.98F
6HR MIN TEMP:  63; 6HR MAX TEMP:  79;

BEATRICE       CLEAR     65  58  78 CALM      30.00F
FALLS CITY     CLEAR     64  59  83 CALM      29.99S
6HR MIN TEMP:  64; 6HR MAX TEMP:  79;

NEBRASKA CITY  CLEAR     67  50  55 CALM      30.00S
PLATTSMOUTH    CLEAR     66  51  57 SE5       29.99F
$$

NEZ044-045-051>053-067-040700-
OMAHA AREA

CITY           SKY/WX    TMP DP  RH WIND       PRES   REMARKS
OMAHA EPPLEY   PTCLDY    63  56  78 E5        29.98F
6HR MIN TEMP:  63; 6HR MAX TEMP:  79;

BLAIR          CLEAR     63  56  77 CALM      29.99S
FREMONT        CLEAR     67  60  79 CALM      30.00R HAZE
MILLARD        CLEAR     62  59  92 CALM      29.98F FOG
OFFUTT AFB     CLEAR     56  56  98 E2        29.97F
PLATTSMOUTH    CLEAR     66  51  57 SE5       29.99F
WAHOO          FAIR      64  62  94 S3        29.99S
$$



USA.gov is the U.S. government's official web portal to all federal, state and local government web resources and services.